Weather History for KSFM - January, 2013

Change the Weather History Date:

Tuesday, January 1, 2013

  Actual Average (KPWM) Record (KPWM)
Temperature  
Mean Temperature 21 °F 24 °F  
Max Temperature 30 °F 33 °F 56 °F (1966)
Min Temperature 12 °F 15 °F -12 °F (1957)
Degree Days  
Heating Degree Days 44 41  
Month to date heating degree days 41  
Since 1 July heating degree days 2653  
Cooling Degree Days 0 0  
Month to date cooling degree days 0  
Year to date cooling degree days 0  
Moisture  
Dew Point 17 °F    
Average Humidity 77    
Maximum Humidity 100    
Minimum Humidity 59    
Precipitation  
Precipitation 0.00 in 0.11 in 2.14 in (1935)
Month to date precipitation 0.11  
Year to date precipitation 0.11  
Snow  
Snow 0.00 in 0.60 in 8.40 in (1935)
Month to date snowfall 0.6  
Since 1 July snowfall 15.7  
Snow Depth -    
Sea Level Pressure  
Sea Level Pressure 29.74 in    
Wind  
Wind Speed 8 mph (West)    
Max Wind Speed 24 mph    
Max Gust Speed 32 mph    
Visibility 9 miles    
Events      
T = Trace of Precipitation, MM = Missing Value Source: NWS Daily Summary

Daily Weather History Graph

Daily Weather History Graph

Search for Another Location

Airport or City:

Trip Planner

Search our weather history database for the weather conditions in past years. The results will help you decide how hot, cold, wet, or windy it might be!

Date:

Astronomy

Jan. 01, 2013 Rise Set
Actual Time 7:15 AM EST 4:17 PM EST
Civil Twilight 6:43 AM EST 4:50 PM EST
Nautical Twilight 6:07 AM EST 5:26 PM EST
Astronomical Twilight 5:32 AM EST 6:00 PM EST
Moon 8:53 PM EST (1/1) 9:18 AM EST (1/1)
Length of Visible Light 10h 07m
Length of Day
9h 02m
Waning Gibbous, 83% of the Moon is Illuminated
Jan 1
Waning Gibbous
Jan 4
Last Quarter
Jan 11
New
Jan 18
First Quarter
Jan 26
Full

Hourly Weather History & Observations

Time (EST) Temp. Windchill Dew Point Humidity Pressure Visibility Wind Dir Wind Speed Gust Speed Precip Events Conditions
12:35 AM 28.4 °F 24.6 °F 28.4 °F 100% 29.68 in 10.0 mi South 3.5 mph - N/A   Overcast
1:15 AM 28.4 °F - 26.6 °F 93% 29.67 in 10.0 mi Calm Calm - N/A   Overcast
1:35 AM 28.4 °F - 24.8 °F 86% 29.67 in 10.0 mi Calm Calm - N/A   Overcast
1:55 AM 28.4 °F 24.6 °F 15.8 °F 59% 29.67 in 10.0 mi SSW 3.5 mph - N/A   Overcast
2:15 AM 30.2 °F 25.4 °F 30.2 °F 100% 29.67 in 10.0 mi SSW 4.6 mph - N/A   Overcast
2:55 AM 28.4 °F 22.2 °F 17.6 °F 64% 29.66 in 10.0 mi SW 5.8 mph - N/A   Scattered Clouds
3:15 AM 28.4 °F 22.2 °F 28.4 °F 100% 29.65 in 10.0 mi SSW 5.8 mph - N/A   Scattered Clouds
3:35 AM 28.4 °F 23.3 °F 19.4 °F 69% 29.64 in 10.0 mi SSW 4.6 mph - N/A   Mostly Cloudy
4:15 AM 28.4 °F 23.3 °F 26.6 °F 93% 29.64 in 10.0 mi SSW 4.6 mph - N/A   Mostly Cloudy
4:35 AM 28.4 °F 19.1 °F 17.6 °F 64% 29.63 in 10.0 mi SW 10.4 mph - N/A   Partly Cloudy
4:55 AM 28.4 °F 18.5 °F 28.4 °F 100% 29.63 in 10.0 mi SW 11.5 mph - N/A   Clear
5:15 AM 28.4 °F 19.7 °F 21.2 °F 74% 29.64 in 10.0 mi SW 9.2 mph - N/A   Clear
5:35 AM 28.4 °F 22.2 °F 26.6 °F 93% 29.65 in 10.0 mi SSW 5.8 mph - N/A   Clear
5:55 AM 26.6 °F 20.0 °F 23.0 °F 86% 29.65 in 10.0 mi South 5.8 mph - N/A   Clear
6:15 AM 26.6 °F 21.2 °F 19.4 °F 74% 29.66 in 10.0 mi SSW 4.6 mph - N/A   Clear
6:35 AM 21.2 °F - 15.8 °F 80% 29.66 in 10.0 mi Calm Calm - N/A   Clear
6:55 AM 17.6 °F 12.3 °F 14.0 °F 86% 29.67 in 9.0 mi SE 3.5 mph - N/A   Mostly Cloudy
7:15 AM 21.2 °F 13.6 °F 21.2 °F 100% 29.67 in 10.0 mi West 5.8 mph - N/A   Overcast
7:35 AM 28.4 °F 20.4 °F 19.4 °F 69% 29.67 in 10.0 mi West 8.1 mph - N/A   Overcast
7:55 AM 30.2 °F 21.9 °F 28.4 °F 93% 29.68 in 10.0 mi West 9.2 mph - N/A   Overcast
8:35 AM 30.2 °F 25.4 °F 26.6 °F 86% 29.69 in 10.0 mi WNW 4.6 mph - N/A   Mostly Cloudy
8:55 AM 30.2 °F 19.8 °F 28.4 °F 93% 29.70 in 10.0 mi WNW 13.8 mph 19.6 mph N/A   Overcast
9:15 AM 30.2 °F 18.5 °F 17.6 °F 60% 29.70 in 10.0 mi WNW 17.3 mph 24.2 mph N/A   Overcast
9:35 AM 28.4 °F 16.6 °F 24.8 °F 86% 29.72 in 10.0 mi WNW 16.1 mph 25.3 mph N/A   Partly Cloudy
10:15 AM 28.4 °F 15.1 °F 23.0 °F 80% 29.73 in 5.0 mi West 20.7 mph 28.8 mph N/A   Clear
10:35 AM 28.4 °F 15.8 °F 21.2 °F 74% 29.74 in 3.0 mi WNW 18.4 mph 32.2 mph N/A   Clear
10:55 AM 28.4 °F 15.8 °F 17.6 °F 64% 29.73 in 3.0 mi West 18.4 mph 31.1 mph N/A   Clear
11:15 AM 28.4 °F 15.8 °F 21.2 °F 74% 29.72 in 3.0 mi West 18.4 mph 28.8 mph N/A   Clear
11:35 AM 28.4 °F 16.6 °F 17.6 °F 64% 29.73 in 5.0 mi WNW 16.1 mph 24.2 mph N/A   Clear
11:55 AM 28.4 °F 15.1 °F 19.4 °F 69% 29.72 in 2.5 mi West 20.7 mph 31.1 mph N/A   Clear
12:15 PM 28.4 °F 16.2 °F 21.2 °F 74% 29.71 in 8.0 mi West 17.3 mph 24.2 mph N/A   Partly Cloudy
12:35 PM 28.4 °F 14.1 °F 15.8 °F 59% 29.72 in 8.0 mi West 24.2 mph 28.8 mph N/A   Scattered Clouds
12:55 PM 26.6 °F 16.2 °F 19.4 °F 74% 29.72 in 7.0 mi WNW 11.5 mph 19.6 mph N/A   Partly Cloudy
1:15 PM 26.6 °F 15.7 °F 21.2 °F 80% 29.72 in 3.0 mi WNW 12.7 mph 24.2 mph N/A   Clear
1:35 PM 26.6 °F 14.7 °F 17.6 °F 69% 29.72 in 9.0 mi West 15.0 mph 20.7 mph N/A   Partly Cloudy
1:55 PM 26.6 °F 12.4 °F 17.6 °F 69% 29.71 in 7.0 mi West 21.9 mph 29.9 mph N/A   Partly Cloudy
2:15 PM 26.6 °F 15.7 °F 19.4 °F 74% 29.72 in 10.0 mi WNW 12.7 mph 25.3 mph N/A   Partly Cloudy
2:35 PM 24.8 °F 10.7 °F 15.8 °F 69% 29.72 in 2.5 mi West 19.6 mph 28.8 mph N/A   Partly Cloudy
2:55 PM 24.8 °F 10.3 °F 15.8 °F 69% 29.72 in 10.0 mi West 20.7 mph 27.6 mph N/A   Clear
3:15 PM 24.8 °F 10.7 °F 19.4 °F 80% 29.72 in 2.5 mi West 19.6 mph 29.9 mph N/A   Clear
3:35 PM 24.8 °F 10.0 °F 14.0 °F 64% 29.73 in 2.5 mi WNW 21.9 mph 32.2 mph N/A   Clear
4:15 PM 21.2 °F 7.3 °F 17.6 °F 86% 29.76 in 8.0 mi WNW 16.1 mph 23.0 mph N/A   Clear
4:55 PM 21.2 °F 9.5 °F 15.8 °F 80% 29.77 in 10.0 mi WNW 11.5 mph 16.1 mph N/A   Clear
5:15 PM 19.4 °F 10.4 °F 12.2 °F 74% 29.77 in 10.0 mi West 6.9 mph - N/A   Clear
5:35 PM 19.4 °F 9.5 °F 14.0 °F 80% 29.78 in 10.0 mi WNW 8.1 mph - N/A   Clear
6:15 PM 19.4 °F 7.9 °F 12.2 °F 74% 29.79 in 10.0 mi West 10.4 mph - N/A   Clear
6:35 PM 17.6 °F 7.3 °F 10.4 °F 73% 29.81 in 10.0 mi WNW 8.1 mph - N/A   Clear
6:55 PM 17.6 °F 9.3 °F 8.6 °F 68% 29.82 in 10.0 mi WNW 5.8 mph - N/A   Clear
7:15 PM 17.6 °F 8.2 °F 8.6 °F 68% 29.83 in 10.0 mi WNW 6.9 mph - N/A   Clear
7:35 PM 17.6 °F 5.7 °F 8.6 °F 68% 29.84 in 10.0 mi WNW 10.4 mph - N/A   Clear
7:55 PM 17.6 °F 7.3 °F 8.6 °F 68% 29.84 in 10.0 mi WNW 8.1 mph 16.1 mph N/A   Clear
8:15 PM 15.8 °F 2.7 °F 8.6 °F 73% 29.84 in 10.0 mi WNW 11.5 mph - N/A   Clear
8:55 PM 15.8 °F 8.6 °F 8.6 °F 73% 29.84 in 10.0 mi North 4.6 mph - N/A   Clear
9:15 PM 14.0 °F 5.1 °F 5.0 °F 67% 29.85 in 10.0 mi North 5.8 mph - N/A   Clear
9:35 PM 12.2 °F 6.1 °F 6.8 °F 79% 29.85 in 10.0 mi NNW 3.5 mph - N/A   Clear
9:55 PM 12.2 °F 4.3 °F 6.8 °F 79% 29.85 in 10.0 mi WNW 4.6 mph - N/A   Clear
10:15 PM 14.0 °F 5.1 °F 6.8 °F 73% 29.85 in 10.0 mi West 5.8 mph - N/A   Clear
10:35 PM 12.2 °F 1.7 °F 6.8 °F 79% 29.86 in 10.0 mi West 6.9 mph - N/A   Clear
10:55 PM 12.2 °F 1.7 °F 5.0 °F 73% 29.87 in 10.0 mi WNW 6.9 mph - N/A   Clear
11:15 PM 12.2 °F -1.8 °F 6.8 °F 79% 29.87 in 10.0 mi West 11.5 mph - N/A   Clear
11:35 PM 12.2 °F -0.2 °F 6.8 °F 79% 29.87 in 10.0 mi West 9.2 mph - N/A   Clear
11:55 PM 12.2 °F 0.7 °F 5.0 °F 73% 29.87 in 10.0 mi West 8.1 mph - N/A   Clear